Sunshine Coast Airport Observation History
Time Wind Speed Temp Pressure Rel. Hum Rain
20/10:30am SE 15-19 kts 25.7°c 1021.1 hPa 75% 0.0mm
20/10:00am SE 16-20 kts 25.2°c 1021.3 hPa 74% 0.0mm
20/09:30am SSE 14-20 kts 24.0°c 1021.1 hPa 80% 0.0mm
20/09:00am SSE 13-20 kts 24.3°c 1021.4 hPa 80% 18.0mm
20/08:30am SE 14-19 kts 24.5°c 1021.3 hPa 78% 18.0mm
20/08:20am SE 16-21 kts 24.0°c 1021.2 hPa 77% 18.0mm
20/08:07am SE 12-18 kts 23.6°c 1021.2 hPa 84% 18.0mm
20/08:00am SE 14-19 kts 23.6°c 1021.1 hPa 80% 17.8mm
20/07:30am SE 14-19 kts 23.6°c 1020.7 hPa 78% 17.8mm
20/07:00am SSE 13-21 kts 23.2°c 1020.5 hPa 81% 17.8mm
20/06:30am SE 16-22 kts 23.2°c 1020.1 hPa 80% 17.8mm
20/06:00am SSE 12-18 kts 22.2°c 1019.9 hPa 85% 17.8mm
20/05:49am SE 16-24 kts 22.2°c 1019.9 hPa 83% 17.8mm
20/05:30am SE 14-21 kts 22.4°c 1019.7 hPa 85% 17.6mm
20/05:27am SE 13-21 kts 22.6°c 1019.6 hPa 84% 16.8mm
20/05:00am SE 15-21 kts 23.6°c 1019.4 hPa 75% 16.4mm
20/04:30am SE 15-21 kts 23.7°c 1019.4 hPa 77% 16.4mm
20/04:00am SE 16-22 kts 23.7°c 1019.1 hPa 79% 16.4mm
20/03:30am SE 14-20 kts 23.2°c 1019.0 hPa 83% 16.2mm
20/03:13am SE 15-25 kts 23.3°c 1019.1 hPa 78% 16.2mm
20/03:00am SE 15-21 kts 23.9°c 1019.1 hPa 78% 16.2mm
20/02:30am ESE 16-22 kts 23.9°c 1019.2 hPa 76% 16.2mm
20/02:00am ESE 17-23 kts 23.9°c 1019.4 hPa 76% 16.2mm
20/01:30am ESE 15-20 kts 23.9°c 1019.6 hPa 79% 16.2mm
20/01:00am SE 15-19 kts 23.6°c 1020.0 hPa 81% 16.2mm
20/12:30am ESE 15-22 kts 23.9°c 1019.8 hPa 77% 16.2mm
20/12:00am ESE 16-22 kts 23.8°c 1020.5 hPa 78% 16.2mm
Time Wind Speed Temp Pressure Rel. Hum Rain
19/11:30pm ESE 15-23 kts 23.7°c 1020.7 hPa 79% 16.2mm
19/11:12pm ESE 15-22 kts 23.5°c 1020.8 hPa 83% 16.2mm
19/11:00pm ESE 9-13 kts 22.0°c 1020.8 hPa 93% 16.2mm
19/10:52pm ESE 11-15 kts 22.0°c 1020.9 hPa 92% 16.2mm
19/10:41pm ESE 16-26 kts 21.7°c 1021.3 hPa 92% 14.4mm
19/10:30pm ESE 18-25 kts 22.2°c 1021.3 hPa 90% 12.8mm
19/10:26pm SE 17-25 kts 22.1°c 1021.3 hPa 90% 12.8mm
19/10:24pm SE 15-25 kts 22.3°c 1021.2 hPa 90% 12.8mm
19/10:15pm ESE 12-26 kts 21.6°c 1021.2 hPa 86% 12.6mm
19/10:11pm ESE 16-26 kts 21.3°c 1021.3 hPa 84% 11.8mm
19/10:07pm ESE 19-26 kts 21.8°c 1021.1 hPa 84% 11.4mm
19/10:04pm ESE 19-25 kts 22.8°c 1021.1 hPa 81% 9.8mm
19/10:00pm SE 16-25 kts 23.2°c 1021.1 hPa 81% 9.6mm
19/09:30pm ESE 15-21 kts 23.8°c 1021.0 hPa 79% 9.6mm
19/09:00pm ESE 12-17 kts 22.9°c 1020.7 hPa 82% 9.6mm
19/08:30pm ESE 15-19 kts 23.3°c 1020.7 hPa 83% 9.6mm
19/08:11pm ESE 15-21 kts 22.7°c 1020.7 hPa 83% 9.6mm
19/08:00pm ESE 13-21 kts 23.3°c 1020.6 hPa 80% 9.6mm
19/07:30pm S 9-14 kts 21.7°c 1020.7 hPa 91% 9.6mm
19/07:00pm S 7-9 kts 21.4°c 1020.3 hPa 91% 9.6mm
19/06:30pm SW 8-11 kts 21.2°c 1020.2 hPa 90% 9.6mm
19/06:18pm SW 6-8 kts 21.1°c 1020.2 hPa 89% 9.6mm
19/06:00pm S 7-11 kts 21.8°c 1020.1 hPa 86% 9.6mm
19/05:30pm SE 15-22 kts 21.7°c 1020.0 hPa 87% 9.6mm
19/05:29pm SE 15-22 kts 21.8°c 1020.0 hPa 87% 9.6mm
19/05:10pm SSE 9-18 kts 22.7°c 1019.8 hPa 84% 9.6mm
19/05:00pm S 8-10 kts 22.3°c 1019.6 hPa 87% 9.6mm
19/04:30pm SE 12-17 kts 23.3°c 1019.4 hPa 86% 9.6mm
19/04:27pm SE 13-17 kts 23.2°c 1019.4 hPa 86% 9.6mm
19/04:16pm SE 9-13 kts 22.8°c 1019.3 hPa 88% 9.6mm
19/04:00pm SE 8-19 kts 21.3°c 1019.2 hPa 85% 9.6mm
19/03:48pm ESE 16-22 kts 21.6°c 1019.1 hPa 81% 7.4mm
19/03:30pm SSE 13-19 kts 24.8°c 1019.1 hPa 74% 6.4mm
19/03:00pm SE 13-18 kts 25.0°c 1019.2 hPa 75% 6.4mm
19/02:30pm SE 16-22 kts 24.5°c 1019.2 hPa 76% 6.4mm
19/02:08pm SSE 14-19 kts 24.9°c 1019.4 hPa 77% 6.4mm
19/02:00pm SSE 14-19 kts 24.8°c 1019.5 hPa 78% 6.4mm
19/01:49pm SE 16-21 kts 24.6°c 1019.6 hPa 80% 6.4mm
19/01:36pm SSE 12-18 kts 24.7°c 1019.7 hPa 81% 6.4mm
19/01:30pm SSE 12-17 kts 24.0°c 1019.8 hPa 84% 6.4mm
19/01:18pm SSE 14-24 kts 23.4°c 1020.0 hPa 80% 6.4mm
19/01:00pm SSE 11-15 kts 24.5°c 1020.1 hPa 80% 5.4mm
19/12:30pm S 14-20 kts 23.3°c 1020.4 hPa 84% 5.4mm
19/12:00pm S 10-14 kts 22.1°c 1021.0 hPa 91% 5.4mm
19/11:59am S 11-15 kts 22.1°c 1021.0 hPa 91% 5.4mm
19/11:47am SE 13-19 kts 21.2°c 1021.3 hPa 91% 5.4mm
19/11:34am SE 20-31 kts 20.3°c 1021.8 hPa 85% 3.6mm
19/11:30am SE 17-27 kts 21.1°c 1021.7 hPa 82% 2.2mm
19/11:27am SSE 15-27 kts 23.2°c 1021.6 hPa 77% 0.8mm
19/11:00am S 15-21 kts 24.0°c 1021.8 hPa 78% 0.8mm
19/10:51am S 14-20 kts 23.8°c 1021.9 hPa 81% 0.8mm
19/10:30am S 14-19 kts 22.5°c 1022.2 hPa 84% 0.8mm
19/10:29am S 13-19 kts 22.6°c 1022.2 hPa 83% 0.8mm
19/10:00am S 15-20 kts 23.0°c 1022.4 hPa 82% 0.4mm
19/09:40am S 13-17 kts 22.3°c 1022.3 hPa 87% 0.4mm
19/09:30am S 13-20 kts 21.9°c 1022.5 hPa 86% 0.4mm
19/09:00am S 13-17 kts 22.4°c 1022.5 hPa 83% 8.6mm
19/08:30am S 13-17 kts 21.9°c 1022.3 hPa 82% 8.6mm
19/08:00am SSW 14-19 kts 21.0°c 1022.0 hPa 86% 8.6mm
19/07:30am SSW 13-18 kts 20.6°c 1021.8 hPa 85% 8.6mm
19/07:00am SSW 13-18 kts 20.0°c 1021.7 hPa 86% 8.6mm
19/06:30am SSW 13-17 kts 19.8°c 1021.4 hPa 87% 8.6mm
19/06:00am SSW 12-18 kts 19.6°c 1021.1 hPa 88% 8.6mm
19/05:30am S 12-17 kts 19.6°c 1021.0 hPa 89% 8.6mm
19/05:00am SSW 11-16 kts 19.6°c 1020.7 hPa 87% 8.6mm
19/04:30am SSW 11-15 kts 19.4°c 1020.6 hPa 89% 8.6mm
19/04:00am SSW 10-13 kts 19.5°c 1020.6 hPa 89% 8.6mm
19/03:30am SSW 11-14 kts 19.6°c 1020.6 hPa 90% 8.6mm
19/03:28am SSW 11-14 kts 19.5°c 1020.6 hPa 90% 8.6mm
19/03:16am SSW 11-15 kts 19.5°c 1020.8 hPa 90% 8.6mm
19/03:00am SSW 9-11 kts 19.4°c 1020.8 hPa 90% 7.6mm
19/02:33am SSW 7-10 kts 19.4°c 1021.0 hPa 92% 7.4mm
19/02:30am SSW 7-9 kts 19.4°c 1021.1 hPa 92% 7.4mm
19/02:23am SSW 8-10 kts 19.5°c 1021.2 hPa 91% 7.4mm
19/02:05am SSW 10-16 kts 19.6°c 1021.2 hPa 90% 6.4mm
19/02:00am SSW 10-16 kts 19.6°c 1021.3 hPa 89% 6.4mm
19/01:30am SSW 10-15 kts 19.9°c 1021.7 hPa 87% 4.6mm
19/01:29am SSW 10-15 kts 19.9°c 1021.8 hPa 86% 4.0mm
19/01:13am SSW 10-13 kts 20.1°c 1021.7 hPa 85% 2.2mm
19/01:00am S 9-13 kts 20.4°c 1021.9 hPa 84% 0.8mm
19/12:30am SSW 9-13 kts 20.6°c 1022.0 hPa 84% 0.2mm
19/12:00am SSW 10-13 kts 21.0°c 1022.1 hPa 82% 0.0mm
Time Wind Speed Temp Pressure Rel. Hum Rain
18/11:30pm SSW 8-10 kts 20.8°c 1022.2 hPa 83% 0.0mm
18/11:00pm SSW 10-12 kts 21.4°c 1022.3 hPa 81% 0.0mm
18/10:30pm S 8-10 kts 21.3°c 1022.5 hPa 80% 0.0mm
18/10:00pm SSW 8-9 kts 21.7°c 1022.5 hPa 77% 0.0mm
18/09:30pm SSW 8-11 kts 21.6°c 1022.5 hPa 77% 0.0mm
18/09:00pm SSW 8-11 kts 22.7°c 1022.4 hPa 70% 0.0mm
18/08:30pm SSE 12-17 kts 23.3°c 1022.3 hPa 69% 0.0mm
18/08:00pm SSE 12-16 kts 23.2°c 1022.1 hPa 69% 0.0mm
18/07:30pm SSE 13-18 kts 23.6°c 1022.0 hPa 67% 0.0mm
18/07:00pm SSE 13-18 kts 23.8°c 1021.6 hPa 71% 0.0mm
18/06:30pm SSE 12-15 kts 23.6°c 1021.3 hPa 67% 0.0mm
18/06:00pm SE 12-17 kts 23.6°c 1021.1 hPa 67% 0.0mm
18/05:30pm SSE 13-18 kts 23.7°c 1020.6 hPa 70% 0.0mm
18/05:00pm SE 14-18 kts 23.7°c 1020.2 hPa 68% 0.0mm
18/04:30pm SSE 12-18 kts 24.1°c 1020.0 hPa 68% 0.0mm
18/04:00pm SE 15-20 kts 24.3°c 1019.9 hPa 68% 0.0mm
18/03:30pm SE 13-18 kts 25.1°c 1019.9 hPa 65% 0.0mm
18/03:00pm SSE 14-17 kts 25.1°c 1020.1 hPa 66% 0.0mm
18/02:30pm SSE 14-19 kts 25.2°c 1020.1 hPa 64% 0.0mm
18/02:00pm SSE 15-19 kts 25.4°c 1020.1 hPa 62% 0.0mm
18/01:30pm SSE 14-20 kts 25.6°c 1020.3 hPa 65% 0.0mm
18/01:00pm SSE 14-19 kts 25.4°c 1020.4 hPa 65% 0.0mm
18/12:30pm SSE 15-20 kts 25.5°c 1020.9 hPa 63% 0.0mm
18/12:00pm SSE 14-19 kts 25.3°c 1021.2 hPa 64% 0.0mm
18/11:30am SSE 14-18 kts 24.9°c 1021.6 hPa 64% 0.0mm
18/11:00am SSE 12-19 kts 25.5°c 1022.0 hPa 65% 0.0mm
18/10:30am SSE 14-19 kts 24.6°c 1022.2 hPa 65% 0.0mm
18/10:00am SSE 14-20 kts 24.4°c 1022.3 hPa 68% 0.0mm
18/09:30am S 14-18 kts 23.4°c 1022.3 hPa 70% 0.0mm
18/09:00am S 11-15 kts 22.9°c 1022.3 hPa 73% 0.2mm
18/08:30am S 13-18 kts 22.0°c 1022.2 hPa 74% 0.2mm
18/08:00am S 11-15 kts 21.1°c 1022.0 hPa 75% 0.2mm
18/07:30am SSW 11-15 kts 20.6°c 1021.7 hPa 77% 0.2mm
18/07:00am SSW 11-15 kts 19.7°c 1021.4 hPa 79% 0.2mm
18/06:30am SSW 11-15 kts 19.2°c 1021.0 hPa 81% 0.2mm
18/06:00am SSW 12-14 kts 19.3°c 1020.6 hPa 80% 0.2mm
18/05:30am SSW 11-13 kts 19.2°c 1020.2 hPa 80% 0.2mm
18/05:00am SSW 12-15 kts 19.3°c 1020.2 hPa 80% 0.2mm
18/04:30am SSW 10-14 kts 19.3°c 1020.0 hPa 80% 0.2mm
18/04:00am SSW 10-13 kts 19.4°c 1020.1 hPa 81% 0.2mm
18/03:30am SSW 9-11 kts 19.3°c 1020.1 hPa 83% 0.2mm
18/03:00am SSW 10-13 kts 19.5°c 1020.0 hPa 82% 0.2mm
18/02:30am SSW 11-14 kts 19.5°c 1020.2 hPa 82% 0.2mm
18/02:00am SSW 9-13 kts 19.4°c 1020.5 hPa 84% 0.2mm
18/01:30am SSW 9-12 kts 19.5°c 1020.6 hPa 85% 0.2mm
18/01:00am SSW 9-13 kts 19.6°c 1020.8 hPa 86% 0.2mm
18/12:56am SSW 9-12 kts 19.6°c 1020.9 hPa 86% 0.2mm
18/12:30am SSW 8-13 kts 19.7°c 1021.0 hPa 87% 0.2mm
18/12:00am SSW 7-11 kts 20.0°c 1021.1 hPa 87% 0.2mm